Weather Roundup
Issued by NWS

Home | Current Version | Previous Version | Text Only | Print | Product List | Glossary On
Versions: 1 2 3 4 5 6 7 8 9 10 11 12 13 14 15 16 17 18 19 20 21 22 23 24 25 26 27 28 29 30 31 32 33 34 35 36 37 38 39 40 41 42 43 44 45 46 47 48 49 50
000
NZUS93 KARX 011710
HRRWXR

CURRENT HOURLY OBSERVATIONS ACROSS
MUCH OF THE UPPER MISSISSIPPI VALLEY
NATIONAL WEATHER SERVICE LA CROSSE WI
1100 AM CST SUN FEB 01 2015


...SOUTHEAST MINNESOTA...


CITY           SKY/WX    TMP DP  RH WIND       PRES   REMARKS
ROCHESTER      SNOW      12   7  80 NE24G33   30.10R VSB 1/2 WCI  -8
ROCHESTER/MAYO CLOUDY    13   8  79 N12G23    30.13S WCI  -1
WINONA         CLOUDY    16  10  79 NE10G16   30.18S HAZE    WCI   3
AUSTIN         LGT SNOW  14   9  79 NE18G30   30.08R WCI  -3
ALBERT LEA     SNOW      14  10  85 NE20G26   30.09R VSB 1/2 WCI  -3
DODGE CENTER   LGT SNOW  12   9  85 NE20G26   30.11R WCI  -6
PRESTON        CLOUDY    13   8  83 NE21G26   30.08R WCI  -6
OWATONNA       LGT SNOW  12   9  85 N20G29    30.14S WCI  -6
FARIBAULT      CLOUDY    12   7  79 N18G28    30.19S HAZE    WCI  -5
$$

...ELSEWHERE IN MINNESOTA...


CITY           SKY/WX    TMP DP  RH WIND       PRES   REMARKS
MINNEAPOLIS    CLOUDY    13   1  59 NE21      30.25S WCI  -5
INTNL FALLS    MOSUNNY   -8 -17  64 CALM      30.46F
DULUTH         MOSUNNY    3 -15  43 N12       30.32F WCI -13
RED WING       CLOUDY    14   1  57 NE9G17    30.22S WCI   2
REDWOOD FALLS  LGT SNOW  12   4  70 N9        30.27R WCI   0
MANKATO        CLOUDY    14   7  73 NE21      30.18R WCI  -4
WORTHINGTON    CLOUDY    18   3  53 N21G31    30.16R VSB 3/4 WCI   1
FAIRMONT       CLOUDY    14   9  79 N17G25    30.12R VSB 1/2 WCI  -3
$$

...SOUTHWEST WISCONSIN...


CITY           SKY/WX    TMP DP  RH WIND       PRES   REMARKS
LA CROSSE      LGT SNOW  17   9  70 N13       30.14R WCI   4
PRAIRIE DU CHI MIX PCPN  19  12  75 NE12G22   30.02S WCI   6
BOSCOBEL       LGT SNOW  19  12  74 NE13G24   30.03S WCI   6
LONE ROCK      LGT SNOW  17  11  77 NE16G23   30.04R WCI   2
PLATTEVILLE    CLOUDY    19  16  88 N22G33    29.92R VSB 3/4 WCI   2
FORT MC COY    LGT SNOW  15   9  77 NE18G24   30.13S WCI  -2
CAMP DOUGLAS   LGT SNOW  14  12  92 NE10G20   30.12S BLWGSNOWWCI   1
VIROQUA        CLOUDY    14  10  83 NE18      30.04R WCI  -3
WIS DELLS      SNOW      14  10  83 NE17G31   30.05F VSB 1/2 WCI  -3
$$

...ELSEWHERE IN WISCONSIN...


CITY           SKY/WX    TMP DP  RH WIND       PRES   REMARKS
MILWAUKEE      SNOW      23  19  85 NE26G35   30.01F VSB 1/4 WCI   6
MADISON        LGT SNOW  16  11  80 NE24G32   30.01F BLWGSNOWWCI  -2
GREEN BAY      LGT SNOW  10   4  76 NE30G39   30.20F WCI -12
EAU CLAIRE     CLOUDY    12   1  61 NE13      30.21F WCI  -3
BLACK RVR FLS  LGT SNOW  14   8  77 NE16      30.16S WCI  -2
MEDFORD        CLOUDY     9   1  68 NE14G20   30.16F WCI  -7
WAUSAU         CLOUDY    11   2  67 NE16G23   30.17F WCI  -6
WIS RAPIDS     LGT SNOW  12   5  73 NE13      30.16F WCI  -3
MARSHFIELD     CLOUDY    12   3  67 NE16G25   30.14F WCI  -5
RICE LAKE      CLOUDY    12   1  59 NE20G25   30.26S WCI  -6
$$

...NORTHEAST IOWA...


CITY           SKY/WX    TMP DP  RH WIND       PRES   REMARKS
DECORAH        LGT SNOW  16  10  79 N16G29    30.02R VSB 3/4 WCI   0
MASON CITY     SNOW      15  11  83 NE28G33   30.05R VSB 1/2 WCI  -5
CHARLES CITY   LGT SNOW  16  12  86 NE26G33   30.01R VSB 3/4 WCI  -3
OELWEIN        SNOW      18  14  86 NE28G37   29.94R VSB 1/4 WCI  -1
$$

...ELSEWHERE IN IOWA...


CITY           SKY/WX    TMP DP  RH WIND       PRES   REMARKS
DES MOINES     HVY SNOW  23  19  85 NE21G29   29.88R VSB 1/4 WCI   8
IOWA CITY      LGT SNOW  24  21  88 NE21G28   29.86R VSB 3/4 WCI   9
FORT DODGE     CLOUDY    19  12  73 CALM      30.02R
$$

...NORTHERN ILLINOIS...


CITY           SKY/WX    TMP DP  RH WIND       PRES   REMARKS
CHICAGO-OHARE  SNOW      28  27  96 NE21      29.86F VSB 1/2 WCI  15
CHICAGO-MIDWAY SNOW      31  29  92 NE21G29   29.85F VSB 1/2 WCI  18
MOLINE         SNOW      28  25  88 NE23      29.79S VSB 1/2 WCI  14
ROCKFORD       LGT SNOW  25  20  81 NE22G36   29.90F VSB 1   WCI  10
PEORIA         SNOW      34  32  92 E7        29.73F VSB 1/2 WCI  28
$$

NOTE: "FAIR" INDICATES FEW OR NO CLOUDS BELOW 12,000 FEET WITH NO
SIGNIFICANT WEATHER AND/OR OBSTRUCTIONS TO VISIBILITY. WIND
SPEEDS ARE IN MILES-PER-HOUR.



USA.gov is the U.S. government's official web portal to all federal, state and local government web resources and services.